DMSP 5D-2 F15 DEB

基本信息
目录编号:
25993
目录名称:
DMSP 5D-2 F15 DEB
国际标识:
1999-067C
轨道中心:
EARTH
物体状态:
在轨
发射日期:
1999-12-12 UTC
轨道信息
数据来源: 国际轨道数据
星历时间: 2026-07-14T04:37:02+0800
半长轴: 7084.569km
偏心率: 0.0001728
轨道倾角: 98.344°
近地点辐角: 174.387°
升交点赤经: 181.841°
平近点角: 255.965°
近地点: 705.207km
远地点: 707.657km
周期: 98.908分钟
每日圈数: 14.559037
详细信息
发射场:
AFWTR
轨道高度:
LEO
数据来源:
AOE Integration Group
参考系:
TEME
时间系统:
UTC
历元类型:
SGP4
2D轨道图
3D轨道图
轨道高度分析图
轨道倾角分析图
轨道综合分析图
查看轨道综合分析图